• In Österreich
  • Länderverzeichnis
  • Für 7 Tage
  • Wassertemperatur
  • Satellitenkarten
  • Wetterkarte
  • News
  • Widgets
  • user-avatar
    Anmelden

    Stündliche Wetter Grinsboro

    Heute, 20 September, Donnerstag

    Zeit Temperatur Niederschläge Wind Luftdruck Luftfeuchtigkeit
    00:00 +21°C° 0 mm 0 m/S 741 mmHg 79%
    01:00 +21°C° 0 mm 0 m/S 742 mmHg 81%
    02:00 +21°C° 0 mm 0 m/S 742 mmHg 82%
    03:00 +20°C° 0 mm 0 m/S 742 mmHg 83%
    04:00 +20°C° 0 mm 0 m/S 742 mmHg 84%
    05:00 +20°C° 0 mm 0 m/S 742 mmHg 84%
    06:00 +21°C° 0 mm 0 m/S 743 mmHg 85%
    07:00 +21°C° 0 mm 0 m/S 743 mmHg 85%
    08:00 +23°C° 0 mm 0 m/S 744 mmHg 78%
    09:00 +26°C° 0 mm 0 m/S 744 mmHg 71%
    10:00 +28°C° 0 mm 0 m/S 744 mmHg 63%
    11:00 +29°C° 0 mm 0 m/S 744 mmHg 60%
    12:00 +32°C° 0 mm 1 m/S 744 mmHg 57%
    13:00 +32°C° 0 mm 1 m/S 744 mmHg 54%
    14:00 +32°C° 0.2 mm 1 m/S 743 mmHg 58%
    15:00 +31°C° 0.2 mm 1 m/S 743 mmHg 62%
    16:00 +31°C° 0.2 mm 1 m/S 743 mmHg 65%
    17:00 +29°C° 0.2 mm 2 m/S 743 mmHg 72%
    18:00 +27°C° 0.2 mm 2 m/S 743 mmHg 78%
    19:00 +25°C° 0.2 mm 2 m/S 744 mmHg 84%
    20:00 +25°C° 0.1 mm 2 m/S 744 mmHg 86%
    21:00 +24°C° 0.1 mm 2 m/S 744 mmHg 88%
    22:00 +24°C° 0.1 mm 2 m/S 745 mmHg 90%
    23:00 +24°C° 0.1 mm 2 m/S 745 mmHg 92%

    Morgen, 21 September, Freitag

    Zeit Temperatur Niederschläge Wind Luftdruck Luftfeuchtigkeit
    00:00 +23°C° 0.1 mm 2 m/S 745 mmHg 93%
    01:00 +23°C° 0.1 mm 2 m/S 745 mmHg 95%
    02:00 +23°C° 0 mm 2 m/S 745 mmHg 95%
    03:00 +23°C° 0 mm 2 m/S 745 mmHg 96%
    04:00 +22°C° 0 mm 1 m/S 745 mmHg 97%
    05:00 +22°C° 0 mm 1 m/S 745 mmHg 97%
    06:00 +22°C° 0 mm 1 m/S 745 mmHg 96%
    07:00 +22°C° 0 mm 1 m/S 745 mmHg 96%
    08:00 +24°C° 0 mm 1 m/S 746 mmHg 89%
    09:00 +26°C° 0 mm 2 m/S 746 mmHg 83%
    10:00 +27°C° 0 mm 2 m/S 746 mmHg 76%
    11:00 +28°C° 0 mm 2 m/S 745 mmHg 73%
    12:00 +29°C° 0 mm 2 m/S 745 mmHg 70%
    13:00 +30°C° 0 mm 2 m/S 744 mmHg 67%
    14:00 +30°C° 0.1 mm 2 m/S 744 mmHg 68%
    15:00 +30°C° 0.1 mm 3 m/S 743 mmHg 68%
    16:00 +30°C° 0.1 mm 3 m/S 743 mmHg 69%
    17:00 +28°C° 0 mm 2 m/S 743 mmHg 75%
    18:00 +27°C° 0 mm 2 m/S 743 mmHg 81%
    19:00 +25°C° 0 mm 2 m/S 743 mmHg 88%
    20:00 +24°C° 0 mm 2 m/S 743 mmHg 89%
    21:00 +24°C° 0 mm 2 m/S 744 mmHg 90%
    22:00 +23°C° 0 mm 2 m/S 744 mmHg 92%
    23:00 +23°C° 0 mm 2 m/S 744 mmHg 92%

    übermorgen, 22 September, Samstag

    Zeit Temperatur Niederschläge Wind Luftdruck Luftfeuchtigkeit
    00:00 +23°C° 0 mm 2 m/S 744 mmHg 92%
    01:00 +21°C° 0 mm 2 m/S 744 mmHg 93%
    02:00 +21°C° 0 mm 2 m/S 743 mmHg 94%
    03:00 +21°C° 0 mm 2 m/S 743 mmHg 94%
    04:00 +21°C° 0 mm 2 m/S 743 mmHg 95%
    05:00 +21°C° 0 mm 2 m/S 743 mmHg 95%
    06:00 +22°C° 0 mm 1 m/S 743 mmHg 94%
    07:00 +22°C° 0 mm 1 m/S 743 mmHg 94%
    08:00 +25°C° 0 mm 1 m/S 743 mmHg 85%
    09:00 +27°C° 0 mm 1 m/S 743 mmHg 77%
    10:00 +29°C° 0 mm 1 m/S 743 mmHg 68%
    11:00 +30°C° 0.1 mm 1 m/S 743 mmHg 64%
    12:00 +31°C° 0.1 mm 1 m/S 742 mmHg 60%
    13:00 +32°C° 0.1 mm 1 m/S 742 mmHg 56%
    14:00 +32°C° 0.1 mm 2 m/S 741 mmHg 58%
    15:00 +32°C° 0.1 mm 2 m/S 741 mmHg 60%
    16:00 +31°C° 0.1 mm 2 m/S 741 mmHg 61%
    17:00 +29°C° 0.2 mm 2 m/S 741 mmHg 68%
    18:00 +28°C° 0.2 mm 2 m/S 741 mmHg 76%
    19:00 +26°C° 0.2 mm 1 m/S 741 mmHg 83%
    20:00 +25°C° 0.2 mm 1 m/S 742 mmHg 85%
    21:00 +25°C° 0.2 mm 1 m/S 742 mmHg 87%
    22:00 +24°C° 0.2 mm 1 m/S 742 mmHg 89%
    23:00 +24°C° 0.1 mm 1 m/S 742 mmHg 90%

    23 September, Sonntag

    Zeit Temperatur Niederschläge Wind Luftdruck Luftfeuchtigkeit
    00:00 +23°C° 0.1 mm 1 m/S 742 mmHg 91%
    01:00 +23°C° 0.1 mm 1 m/S 742 mmHg 92%
    02:00 +23°C° 0.1 mm 1 m/S 742 mmHg 93%
    03:00 +22°C° 0.1 mm 1 m/S 742 mmHg 93%
    04:00 +22°C° 0.1 mm 1 m/S 742 mmHg 93%
    05:00 +22°C° 0 mm 1 m/S 742 mmHg 94%
    06:00 +21°C° 0 mm 2 m/S 742 mmHg 94%
    07:00 +21°C° 0 mm 2 m/S 743 mmHg 95%
    08:00 +21°C° 0 mm 2 m/S 743 mmHg 93%
    09:00 +21°C° 0 mm 3 m/S 743 mmHg 91%
    10:00 +22°C° 0 mm 3 m/S 744 mmHg 89%
    11:00 +22°C° 0.1 mm 3 m/S 744 mmHg 87%
    12:00 +22°C° 0.1 mm 4 m/S 744 mmHg 85%
    13:00 +23°C° 0.1 mm 4 m/S 743 mmHg 83%
    14:00 +23°C° 0.1 mm 4 m/S 743 mmHg 83%
    15:00 +22°C° 0.1 mm 4 m/S 743 mmHg 83%
    16:00 +22°C° 0.1 mm 4 m/S 743 mmHg 83%
    17:00 +21°C° 0 mm 4 m/S 744 mmHg 84%
    18:00 +20°C° 0 mm 4 m/S 744 mmHg 85%
    19:00 +19°C° 0 mm 4 m/S 745 mmHg 86%
    20:00 +19°C° 0 mm 4 m/S 745 mmHg 86%
    21:00 +19°C° 0 mm 4 m/S 745 mmHg 87%
    22:00 +18°C° 0 mm 4 m/S 746 mmHg 87%
    23:00 +18°C° 0 mm 4 m/S 746 mmHg 87%

    24 September, Montag

    Zeit Temperatur Niederschläge Wind Luftdruck Luftfeuchtigkeit
    00:00 +17°C° 0 mm 4 m/S 746 mmHg 87%
    01:00 +17°C° 0 mm 4 m/S 746 mmHg 87%
    02:00 +17°C° 0.1 mm 4 m/S 746 mmHg 87%
    03:00 +17°C° 0.1 mm 4 m/S 746 mmHg 88%
    04:00 +15°C° 0.1 mm 4 m/S 746 mmHg 88%
    05:00 +15°C° 0.4 mm 4 m/S 746 mmHg 90%
    06:00 +15°C° 0.4 mm 4 m/S 747 mmHg 91%
    07:00 +15°C° 0.4 mm 4 m/S 747 mmHg 93%
    08:00 +15°C° 0.2 mm 4 m/S 748 mmHg 92%
    09:00 +17°C° 0.2 mm 4 m/S 748 mmHg 92%
    10:00 +17°C° 0.2 mm 4 m/S 748 mmHg 92%
    11:00 +18°C° 0.1 mm 4 m/S 748 mmHg 90%
    12:00 +19°C° 0.1 mm 4 m/S 748 mmHg 88%
    13:00 +19°C° 0.1 mm 4 m/S 747 mmHg 86%
    14:00 +20°C° 0 mm 4 m/S 747 mmHg 86%
    15:00 +20°C° 0 mm 3 m/S 747 mmHg 86%
    16:00 +20°C° 0 mm 3 m/S 746 mmHg 86%
    17:00 +20°C° 0 mm 3 m/S 747 mmHg 87%
    18:00 +19°C° 0 mm 3 m/S 747 mmHg 89%
    19:00 +19°C° 0 mm 3 m/S 747 mmHg 90%
    20:00 +19°C° 0 mm 3 m/S 747 mmHg 92%
    21:00 +19°C° 0 mm 3 m/S 747 mmHg 93%
    22:00 +19°C° 0 mm 3 m/S 747 mmHg 94%
    23:00 +19°C° 0 mm 3 m/S 747 mmHg 95%

    25 September, Dienstag

    Zeit Temperatur Niederschläge Wind Luftdruck Luftfeuchtigkeit
    00:00 +19°C° 0 mm 2 m/S 747 mmHg 96%
    01:00 +20°C° 0 mm 2 m/S 746 mmHg 97%
    02:00 +20°C° 0 mm 2 m/S 746 mmHg 97%
    03:00 +20°C° 0 mm 2 m/S 746 mmHg 97%
    04:00 +20°C° 0 mm 2 m/S 746 mmHg 97%
    05:00 +20°C° 0 mm 2 m/S 746 mmHg 97%
    06:00 +20°C° 0 mm 2 m/S 746 mmHg 97%
    07:00 +20°C° 0 mm 2 m/S 746 mmHg 97%
    08:00 +23°C° 0 mm 2 m/S 746 mmHg 93%
    09:00 +24°C° 0 mm 2 m/S 747 mmHg 89%
    10:00 +25°C° 0 mm 2 m/S 747 mmHg 85%
    11:00 +26°C° 0.1 mm 1 m/S 746 mmHg 80%
    12:00 +27°C° 0.1 mm 1 m/S 746 mmHg 75%
    13:00 +29°C° 0.1 mm 1 m/S 745 mmHg 70%
    14:00 +29°C° 0.1 mm 1 m/S 745 mmHg 69%
    15:00 +29°C° 0.1 mm 1 m/S 744 mmHg 69%
    16:00 +29°C° 0.1 mm 1 m/S 743 mmHg 68%
    17:00 +27°C° 0.1 mm 1 m/S 743 mmHg 75%
    18:00 +26°C° 0.1 mm 1 m/S 743 mmHg 81%
    19:00 +24°C° 0.1 mm 1 m/S 743 mmHg 88%
    20:00 +24°C° 0 mm 1 m/S 744 mmHg 90%
    21:00 +23°C° 0 mm 1 m/S 744 mmHg 92%
    22:00 +23°C° 0 mm 1 m/S 744 mmHg 94%
    23:00 +23°C° 0 mm 1 m/S 743 mmHg 94%
    Mehr zeigen